Ellsworth AFB, SD

6:58 AM MDT on May 26, 2018 (GMT -0600)
Ellsworth Air Force Base

Weather History for KRCA - December, 2012

Change the Weather History Date:

Tuesday, December 4, 2012

  Actual Average Record
Temperature  
Mean Temperature 38 °F -  
Max Temperature 51 °F 40 °F 64 °F (2007)
Min Temperature 24 °F 19 °F 0 °F (2005)
Degree Days  
Heating Degree Days 28    
Moisture  
Dew Point 18 °F    
Average Humidity 47    
Maximum Humidity 68    
Minimum Humidity 26    
Precipitation  
Precipitation 0.00 in - - ()
Sea Level Pressure  
Sea Level Pressure 30.17 in    
Wind  
Wind Speed 8 mph (SW)    
Max Wind Speed 21 mph    
Max Gust Speed 30 mph    
Visibility 10 miles    
Events      
Averages and records for this station are not official NWS values.
T = Trace of Precipitation, MM = Missing Value Source: NWS Daily Summary

Daily Weather History Graph

Daily Weather History Graph

Search for Another Location

Airport or City:

Astronomy

Dec. 04, 2012 Rise Set
Actual Time 7:11 AM MST 4:14 PM MST
Civil Twilight 6:38 AM MST 4:46 PM MST
Nautical Twilight 6:02 AM MST 5:23 PM MST
Astronomical Twilight 5:27 AM MST 5:58 PM MST
Moon 10:12 PM MST (12/4) 10:59 AM MST (12/4)
Length of Visible Light 10h 08m
Length of Day
9h 02m
Waning Gibbous, 69% of the Moon is Illuminated
Dec 4
Waning Gibbous
Dec 6
Last Quarter
Dec 13
New
Dec 19
First Quarter
Dec 28
Full

Hourly Weather History & Observations

Time (MST) Temp. Windchill Dew Point Humidity Pressure Visibility Wind Dir Wind Speed Gust Speed Precip Events Conditions
12:55 AM 24.3 °F 15.4 °F 14.9 °F 68% 30.19 in 10.0 mi WNW 8.1 mph - N/A   Clear
1:55 AM 26.2 °F 17.8 °F 15.6 °F 64% 30.21 in 10.0 mi West 8.1 mph - N/A   Clear
2:55 AM 32.7 °F 28.3 °F 15.3 °F 49% 30.20 in 10.0 mi WSW 4.6 mph - N/A   Clear
3:55 AM 28.6 °F 20.7 °F 15.3 °F 58% 30.23 in 10.0 mi West 8.1 mph - N/A   Clear
4:55 AM 29.7 °F 22.0 °F 15.4 °F 55% 30.26 in 10.0 mi West 8.1 mph - N/A   Clear
5:55 AM 26.8 °F 19.3 °F 14.5 °F 60% 30.28 in 10.0 mi West 6.9 mph - N/A   Clear
6:55 AM 25.0 °F 19.3 °F 15.1 °F 66% 30.30 in 10.0 mi WNW 4.6 mph - N/A   Clear
7:55 AM 27.0 °F 20.5 °F 16.9 °F 66% 30.32 in 10.0 mi West 5.8 mph - N/A   Clear
8:55 AM 39.0 °F 34.8 °F 19.2 °F 45% 30.30 in 10.0 mi West 5.8 mph - N/A   Clear
9:55 AM 46.8 °F - 17.2 °F 31% 30.25 in 10.0 mi West 5.8 mph - N/A   Clear
10:55 AM 49.1 °F - 19.2 °F 31% 30.22 in 10.0 mi South 11.5 mph - N/A   Clear
11:55 AM 51.8 °F - 17.2 °F 26% 30.18 in 10.0 mi South 18.4 mph - N/A   Clear
12:55 PM 49.6 °F - 20.3 °F 31% 30.15 in 10.0 mi SSE 19.6 mph - N/A   Partly Cloudy
1:55 PM 51.4 °F - 17.4 °F 26% 30.09 in 10.0 mi South 20.7 mph 29.9 mph N/A   Scattered Clouds
2:55 PM 49.8 °F - 17.2 °F 27% 30.09 in 10.0 mi South 18.4 mph - N/A   Clear
3:55 PM 46.0 °F 40.6 °F 19.0 °F 34% 30.10 in 10.0 mi SSE 11.5 mph - N/A   Clear
4:55 PM 40.5 °F 34.6 °F 19.0 °F 42% 30.11 in 10.0 mi SE 9.2 mph - N/A   Clear
5:55 PM 44.6 °F 42.2 °F 19.4 °F 37% 30.11 in 10.0 mi SSW 4.6 mph - N/A   Clear
6:55 PM 38.3 °F - 18.9 °F 46% 30.12 in 10.0 mi Calm Calm - N/A   Clear
7:55 PM 36.7 °F - 19.4 °F 50% 30.12 in 10.0 mi Calm Calm - N/A   Clear
8:55 PM 38.7 °F - 18.3 °F 44% 30.08 in 10.0 mi Calm Calm - N/A   Clear
9:55 PM 31.8 °F 26.2 °F 19.4 °F 60% 30.09 in 10.0 mi West 5.8 mph - N/A   Clear
10:55 PM 33.1 °F 30.0 °F 19.0 °F 56% 30.07 in 10.0 mi West 3.5 mph - N/A   Clear
11:55 PM 34.5 °F - 18.1 °F 51% 30.05 in 10.0 mi Calm Calm - N/A   Clear